FENGYUN 1C DEB, 43213

Orbit data source: Space-Track

FENGYUN 1C DEB, 43213 is space debris in SSO originally from a launch on Mon, 10 May 1999 UTC launched from the Taiyaun Space Center, China (TSC). Fengyun 1C debris stems from the Chinese weather satellite Fengyun-1C, which was intentionally destroyed by a Chinese anti-satellite missile in 2007. This event dramatically increased the amount of space debris, with thousands of trackable fragments posing hazards to satellites and human spaceflight. The Fengyun 1C debris cloud has become a focal point in discussions about space sustainability and the need for international regulations to prevent the creation of new debris.

Loading next visibility...
Identifier
43213, 1999-025EYM
Orbit
SSO
Country
Flag of CNCN / PRC
Related business
Manufacturer
Unknown
Mission
Spacecraft
Bus & Motor
Unknown
Mass
Unknown
Launch date (UTC)
1999-05-10 (27 years ago)
Launch vehicle
Unknown
Launch site
Taiyaun Space Center, China (TSC)
Object type
Payload
Rocket body
Debris
Shape & HBR
Unknown shape, 0.1 m
Radar Cross Section
Small (<0.1 m²)

Expand to show TLE details & history
Last TLE update: 17 hours ago

TLE from 17 hours ago
0 FENGYUN 1C DEB
1 43213U 99025EYM 26062.63871288  .00003353  00000-0  14463-2 0  9991
2 43213  98.7252 131.5078 0051661 354.8483   5.2158 14.24452641415247
Epoch: 2026-03-03T15:19Z
TLE epoch observation values (Epoch: 2026-03-03T15:19:44.792Z)
Latitude
-0.00003°
Longitude
100.15628°
Altitude
776.265 km
Speed
7.485 km/s
True Right ascension
08h 46m 01s
True Declination
0° 00' 00"
Sunlit
Object was in full shadow at epoch
Visualization orbit readout
Latitude
Unknown
Longitude
Unknown
Altitude
Unknown
Speed
Unknown
Apparent Right ascension
Unknown
Apparent Declination
Unknown
Sunlit
N/A
Visualization observer readout
Local Sidereal Time
12:34:54
Azimuth
Unknown
Elevation
Unknown
Doppler factor
Unknown
Orbital elements
Apogee altitude
844.608 km
Perigee altitude
770.365 km
Semi-major axis
7,185.624 km
Eccentricity
0.00517
Inclination
98.7252°
RAAN
131.5078°
Arg. of periapsis
354.8483°
True anomaly
5.26996°
Mean anomaly
5.2158°
Eccentric anomaly
5.24285°
Mean motion
3.56325 °/min
Orbital period
101.03 mins
BSTAR
0.0014463
Loading maneuver chart data...
Computing Atmospheric mass density...
Loading historical data...
Loading historical data...
Loading historical data...
Loading historical data...
Loading historical data...
Loading historical data...
Loading historical data...

Documentation

Showing up to 5 results
|